ONEWEB-0011, 44062

Orbit data source: Space-Track

ONEWEB-0011, 44062 is a payload satellite owned by One Web (UK) in LEO that was launched on Wed, 27 Feb 2019 UTC via a SOYUZ-ST-B launch vehicle from the French Guiana (FRGUI). Payload-class satellites include a variety of spacecraft equipped with specific instruments for various scientific and technological missions. These include communications satellites like Starlink; space stations such as the ISS; scientific satellites like the Hubble; Earth observation satellites from companies like Planet Labs, Umbra, and HawkEye 360; GPS; miniature CubeSats for education and research; and military/defense satellites.

Loading next visibility...
Identifier
44062, 2019-010F
Orbit
LEO
Last TLE update
14 hours ago
Origin
Manufacturer
Airbus/Toulouse
Mission
Operational Commercial Communications
Bus & Motor
ARROW, Unknown motor
Mass
148 kg wet, ~140 kg dry
Launch date (UTC)
2019-02-27 (6 years ago)
Launch vehicle
SOYUZ-ST-B
Launch site
French Guiana (FRGUI)
Object type
Payload
Rocket body
Debris
Shape & HBR
Trap Box + 2 Pan, 5 m
Radar Cross Section
2.957 m², Large (>1 m²)

Expand to show TLE details & history

TLE from 14 hours ago
0 ONEWEB-0011
1 44062U 19010F   25181.85041194  .00000127  00000-0  30384-3 0  9997
2 44062  87.9061 329.2257 0001957  91.1534 268.9820 13.15548785305228
Epoch: 2025-06-30T20:24Z
TLE epoch observation values (Epoch: 2025-06-30T20:24:35.591Z)
Latitude
-0.00008°
Longitude
103.9231°
Altitude
1,204.692 km
Speed
7.252 km/s
True Right ascension
21h 56m 54s
True Declination
0° 00' 00"
Sunlit
Object was in full shadow at epoch
Visualization orbit readout
Latitude
-79.48385°
Longitude
-64.89238°
Altitude
1,231.348 km
Speed
7.238 km/s
Apparent Right ascension
10h 15m 56s
Apparent Declination
-61° 25' 33"
Sunlit
Object is in daylight
Visualization observer readout
Local Sidereal Time
22:08:38
Azimuth
182.375° SSW
Elevation
-68.461°
Doppler factor
1
Orbital elements
Apogee altitude
1,200.365 km
Perigee altitude
1,197.399 km
Semi-major axis
7,577.019 km
Eccentricity
0.0002
Inclination
87.9061°
RAAN
329.2257°
Arg. of periapsis
91.1534°
True anomaly
Unknown
Mean anomaly
268.982°
Eccentric anomaly
Unknown
Mean motion
3.29076 °/min
Orbital period
109.4 mins
BSTAR
0.00030384
Loading maneuver chart data...
Loading SW <> Apogee altitude chart data...
Loading historical data...
Loading historical data...
Loading historical data...
Loading historical data...
Loading historical data...
Loading historical data...
Loading historical data...
Other satellites on launch #10 in the year 2019 (2019-02-27 UTC)

ONEWEB-0011 Visibility forecast

Observer location: undefined°, undefined°

Span
Click to sort rows by Start time (UTC) header in descending order
Start Az.
Max El. time (UTC)
Max El. Az.
Max El.
End time (UTC)
End Az.
12 mins2025-07-01 11:07:11.385Z211.081° SW2025-07-01 11:13:11.385Z279.993° WNW33.949°2025-07-01 11:19:11.385Z344.606° N
10 mins2025-07-01 20:46:11.385Z32.954° NE2025-07-01 20:50:11.385Z74.029° E23.639°2025-07-01 20:56:11.385Z131.19° SE
12 mins2025-07-01 22:35:11.385Z345.721° N2025-07-01 22:40:11.385Z281.179° WNW39.337°2025-07-01 22:47:11.385Z201.049° SSW
10 mins2025-07-02 09:03:11.385Z124.466° SE2025-07-02 09:07:11.385Z83.705° E25.118°2025-07-02 09:13:11.385Z24.411° NE
|